When you browse on this site, cookies collect data to enhance your experience and personalize the content and advertising you see.
Visit our Privacy Policy to learn more. By continuing to use the site, you agree to this use of cookies and data.
  • In Netherlands
  • List of Countries
  • For 7 days
  • Water Temperature
  • Satellite Maps
  • Weather Map
  • Weather Widgets
  • user-avatar
    Login

    Hourly Weather Satif

    Today, 27 June, Thursday

    Time Temperature Precipitation Wind Pressure Humidity
    00:00 +26°C° 0 mm 1 mps 676 mmHg 26%
    01:00 +25°C° 0 mm 1 mps 675 mmHg 26%
    02:00 +25°C° 0 mm 1 mps 675 mmHg 26%
    03:00 +24°C° 0 mm 1 mps 674 mmHg 26%
    04:00 +26°C° 0 mm 1 mps 675 mmHg 24%
    05:00 +27°C° 0 mm 1 mps 676 mmHg 23%
    06:00 +29°C° 0 mm 1 mps 676 mmHg 21%
    07:00 +30°C° 0 mm 1 mps 677 mmHg 19%
    08:00 +31°C° 0 mm 1 mps 677 mmHg 16%
    09:00 +31°C° 0 mm 0 mps 677 mmHg 14%
    10:00 +35°C° 0 mm 2 mps 677 mmHg 12%
    11:00 +36°C° 0 mm 4 mps 678 mmHg 11%
    12:00 +37°C° 0 mm 5 mps 678 mmHg 9%
    13:00 +38°C° 0 mm 6 mps 677 mmHg 10%
    14:00 +38°C° 0 mm 6 mps 676 mmHg 11%
    15:00 +36°C° 0 mm 6 mps 676 mmHg 11%
    16:00 +35°C° 0 mm 6 mps 675 mmHg 15%
    17:00 +33°C° 0 mm 6 mps 675 mmHg 19%
    18:00 +30°C° 0 mm 5 mps 674 mmHg 23%
    19:00 +29°C° 0 mm 4 mps 674 mmHg 29%
    20:00 +27°C° 0 mm 4 mps 674 mmHg 35%
    21:00 +25°C° 0 mm 3 mps 675 mmHg 40%
    22:00 +24°C° 0 mm 2 mps 674 mmHg 43%
    23:00 +24°C° 0 mm 2 mps 674 mmHg 46%

    Tomorrow, 28 June, Friday

    Time Temperature Precipitation Wind Pressure Humidity
    00:00 +23°C° 0 mm 2 mps 674 mmHg 49%
    01:00 +21°C° 0 mm 2 mps 673 mmHg 51%
    02:00 +21°C° 0 mm 2 mps 673 mmHg 52%
    03:00 +20°C° 0 mm 2 mps 673 mmHg 53%
    04:00 +21°C° 0 mm 2 mps 673 mmHg 53%
    05:00 +23°C° 0 mm 2 mps 673 mmHg 53%
    06:00 +23°C° 0 mm 2 mps 673 mmHg 53%
    07:00 +25°C° 0 mm 1 mps 674 mmHg 47%
    08:00 +27°C° 0 mm 1 mps 675 mmHg 41%
    09:00 +28°C° 0 mm 1 mps 675 mmHg 35%
    10:00 +30°C° 0 mm 1 mps 675 mmHg 30%
    11:00 +31°C° 0 mm 1 mps 675 mmHg 24%
    12:00 +34°C° 0 mm 2 mps 675 mmHg 19%
    13:00 +34°C° 0 mm 3 mps 675 mmHg 18%
    14:00 +35°C° 0 mm 4 mps 675 mmHg 18%
    15:00 +35°C° 0 mm 5 mps 675 mmHg 17%
    16:00 +34°C° 0 mm 5 mps 675 mmHg 21%
    17:00 +32°C° 0 mm 6 mps 674 mmHg 25%
    18:00 +30°C° 0 mm 6 mps 674 mmHg 28%
    19:00 +28°C° 0 mm 5 mps 674 mmHg 33%
    20:00 +27°C° 0 mm 3 mps 674 mmHg 37%
    21:00 +25°C° 0 mm 2 mps 674 mmHg 41%
    22:00 +25°C° 0 mm 2 mps 673 mmHg 43%
    23:00 +24°C° 0 mm 2 mps 673 mmHg 45%

    Day after tomorrow, 29 June, Saturday

    Time Temperature Precipitation Wind Pressure Humidity
    00:00 +23°C° 0 mm 2 mps 673 mmHg 47%
    01:00 +23°C° 0 mm 2 mps 672 mmHg 48%
    02:00 +22°C° 0 mm 1 mps 672 mmHg 49%
    03:00 +22°C° 0 mm 1 mps 672 mmHg 51%
    04:00 +23°C° 0 mm 1 mps 672 mmHg 48%
    05:00 +24°C° 0 mm 1 mps 673 mmHg 46%
    06:00 +25°C° 0 mm 1 mps 674 mmHg 44%
    07:00 +27°C° 0 mm 2 mps 674 mmHg 38%
    08:00 +29°C° 0 mm 2 mps 675 mmHg 31%
    09:00 +31°C° 0 mm 2 mps 676 mmHg 25%
    10:00 +32°C° 0 mm 2 mps 676 mmHg 22%
    11:00 +34°C° 0 mm 1 mps 676 mmHg 18%
    12:00 +35°C° 0 mm 1 mps 676 mmHg 15%
    13:00 +35°C° 0 mm 1 mps 676 mmHg 14%
    14:00 +37°C° 0 mm 2 mps 676 mmHg 13%
    15:00 +37°C° 0 mm 2 mps 675 mmHg 13%
    16:00 +36°C° 0 mm 3 mps 675 mmHg 15%
    17:00 +35°C° 0 mm 4 mps 675 mmHg 17%
    18:00 +35°C° 0 mm 5 mps 675 mmHg 19%
    19:00 +33°C° 0 mm 4 mps 675 mmHg 23%
    20:00 +30°C° 0 mm 3 mps 675 mmHg 26%
    21:00 +28°C° 0 mm 2 mps 675 mmHg 30%
    22:00 +28°C° 0 mm 2 mps 674 mmHg 32%
    23:00 +27°C° 0 mm 2 mps 674 mmHg 34%

    30 June, Sunday

    Time Temperature Precipitation Wind Pressure Humidity
    00:00 +26°C° 0 mm 2 mps 674 mmHg 37%
    01:00 +26°C° 0 mm 2 mps 673 mmHg 38%
    02:00 +25°C° 0 mm 1 mps 673 mmHg 39%
    03:00 +24°C° 0 mm 1 mps 673 mmHg 40%
    04:00 +26°C° 0 mm 1 mps 673 mmHg 37%
    05:00 +27°C° 0 mm 1 mps 674 mmHg 33%
    06:00 +28°C° 0 mm 1 mps 675 mmHg 30%
    07:00 +30°C° 0 mm 1 mps 675 mmHg 26%
    08:00 +32°C° 0 mm 1 mps 676 mmHg 22%
    09:00 +34°C° 0 mm 1 mps 676 mmHg 18%
    10:00 +35°C° 0 mm 1 mps 676 mmHg 16%
    11:00 +35°C° 0 mm 1 mps 676 mmHg 14%
    12:00 +36°C° 0 mm 1 mps 676 mmHg 12%
    13:00 +37°C° 0 mm 2 mps 676 mmHg 12%
    14:00 +38°C° 0 mm 4 mps 676 mmHg 12%
    15:00 +39°C° 0 mm 5 mps 675 mmHg 12%
    16:00 +37°C° 0 mm 5 mps 675 mmHg 14%
    17:00 +35°C° 0 mm 6 mps 675 mmHg 15%
    18:00 +34°C° 0 mm 6 mps 675 mmHg 16%
    19:00 +33°C° 0 mm 5 mps 675 mmHg 19%
    20:00 +30°C° 0 mm 4 mps 675 mmHg 21%
    21:00 +28°C° 0 mm 3 mps 675 mmHg 24%
    22:00 +28°C° 0 mm 2 mps 674 mmHg 26%
    23:00 +27°C° 0 mm 2 mps 674 mmHg 27%

    1 July, Monday

    Time Temperature Precipitation Wind Pressure Humidity
    00:00 +26°C° 0 mm 1 mps 674 mmHg 29%
    01:00 +25°C° 0 mm 1 mps 673 mmHg 30%
    02:00 +25°C° 0 mm 1 mps 673 mmHg 32%
    03:00 +24°C° 0 mm 1 mps 673 mmHg 33%
    04:00 +26°C° 0 mm 1 mps 673 mmHg 31%
    05:00 +27°C° 0 mm 1 mps 674 mmHg 28%
    06:00 +28°C° 0 mm 1 mps 675 mmHg 26%
    07:00 +30°C° 0 mm 2 mps 675 mmHg 25%
    08:00 +31°C° 0 mm 3 mps 675 mmHg 24%
    09:00 +33°C° 0 mm 3 mps 676 mmHg 23%
    10:00 +34°C° 0 mm 4 mps 676 mmHg 21%
    11:00 +35°C° 0 mm 4 mps 676 mmHg 20%
    12:00 +36°C° 0 mm 4 mps 676 mmHg 19%
    13:00 +35°C° 0 mm 4 mps 676 mmHg 19%
    14:00 +35°C° 0 mm 4 mps 675 mmHg 20%
    15:00 +35°C° 0 mm 5 mps 675 mmHg 20%
    16:00 +33°C° 0.6 mm 4 mps 675 mmHg 24%
    17:00 +32°C° 0.6 mm 4 mps 674 mmHg 27%
    18:00 +29°C° 0.6 mm 4 mps 674 mmHg 30%
    19:00 +28°C° 0.4 mm 3 mps 674 mmHg 37%
    20:00 +26°C° 0.4 mm 2 mps 674 mmHg 43%
    21:00 +25°C° 0.4 mm 1 mps 674 mmHg 50%
    22:00 +25°C° 0 mm 1 mps 673 mmHg 49%
    23:00 +25°C° 0 mm 1 mps 673 mmHg 48%

    2 July, Tuesday

    Time Temperature Precipitation Wind Pressure Humidity
    00:00 +24°C° 0 mm 1 mps 673 mmHg 47%
    01:00 +24°C° 0 mm 1 mps 673 mmHg 47%
    02:00 +24°C° 0 mm 1 mps 672 mmHg 46%
    03:00 +24°C° 0 mm 1 mps 672 mmHg 46%
    04:00 +24°C° 0.1 mm 1 mps 672 mmHg 45%
    05:00 +24°C° 0.1 mm 1 mps 673 mmHg 43%
    06:00 +25°C° 0.1 mm 2 mps 673 mmHg 42%
    07:00 +26°C° 0 mm 2 mps 674 mmHg 39%
    08:00 +28°C° 0 mm 2 mps 674 mmHg 35%
    09:00 +29°C° 0 mm 2 mps 674 mmHg 31%
    10:00 +31°C° 0 mm 2 mps 674 mmHg 29%
    11:00 +32°C° 0 mm 2 mps 674 mmHg 26%
    12:00 +34°C° 0 mm 2 mps 674 mmHg 24%
    13:00 +34°C° 0 mm 2 mps 674 mmHg 23%
    14:00 +35°C° 0 mm 3 mps 674 mmHg 22%
    15:00 +35°C° 0 mm 3 mps 674 mmHg 21%
    16:00 +34°C° 0 mm 4 mps 673 mmHg 24%
    17:00 +33°C° 0 mm 4 mps 673 mmHg 27%
    18:00 +32°C° 0 mm 4 mps 673 mmHg 30%
    19:00 +29°C° 0.2 mm 4 mps 673 mmHg 33%
    20:00 +28°C° 0.2 mm 3 mps 673 mmHg 36%
    21:00 +27°C° 0.2 mm 2 mps 673 mmHg 40%
    22:00 +26°C° 0 mm 2 mps 673 mmHg 42%
    23:00 +25°C° 0 mm 1 mps 672 mmHg 44%
    Show more